SWA636 KHOU-KCRP

Flight info

Callsign SWA636
Flight time 0h 41m
Altitude 28000
Route PTRON9 PSX V20 CRP
Aircraft B738/M-SDE3/STD

Departure

Time 2026-04-27 16:24
Airport William P. Hobby Airport (KHOU)

Arrival

Time 2026-04-27 17:06
Airport Corpus Christi International Airport (KCRP)
Time Latitude Longitude Altitude Speed Heading
2026-04-27 16:04 29.65249 -95.27662 51 ft 0 kts 357°
2026-04-27 16:14 29.65216 -95.27660 51 ft 2 kts 360°
2026-04-27 16:14 29.65189 -95.27668 51 ft 1 kts 40°
2026-04-27 16:15 29.65178 -95.27692 51 ft 1 kts 83°
2026-04-27 16:15 29.65177 -95.27700 51 ft 0 kts 87°
2026-04-27 16:19 29.65178 -95.27668 51 ft 10 kts 91°
2026-04-27 16:19 29.65149 -95.27542 51 ft 17 kts 92°
2026-04-27 16:20 29.65305 -95.27242 51 ft 12 kts 40°
2026-04-27 16:20 29.65370 -95.27171 51 ft 11 kts 45°
2026-04-27 16:20 29.65484 -95.26979 51 ft 14 kts 107°
2026-04-27 16:21 29.65472 -95.26952 51 ft 0 kts 124°
2026-04-27 16:23 29.65421 -95.26907 51 ft 10 kts 163°
2026-04-27 16:23 29.65302 -95.26997 51 ft 44 kts 223°
2026-04-27 16:23 29.64826 -95.27521 52 ft 141 kts 224°
2026-04-27 16:24 29.63991 -95.28472 454 ft 192 kts 224°
2026-04-27 16:24 29.61783 -95.30955 2144 ft 251 kts 223°
2026-04-27 16:25 29.58937 -95.33289 3487 ft 258 kts 196°
2026-04-27 16:25 29.55446 -95.32738 4824 ft 270 kts 150°
2026-04-27 16:26 29.53026 -95.29417 6187 ft 280 kts 122°
2026-04-27 16:26 29.50755 -95.25799 7460 ft 284 kts 136°
2026-04-27 16:27 29.47835 -95.22704 8748 ft 290 kts 149°
2026-04-27 16:27 29.42459 -95.19437 10723 ft 302 kts 153°
2026-04-27 16:28 29.38555 -95.17433 12079 ft 309 kts 171°
2026-04-27 16:28 29.34451 -95.18153 13372 ft 302 kts 210°
2026-04-27 16:29 29.30153 -95.23099 15329 ft 295 kts 232°
2026-04-27 16:30 29.27329 -95.26773 16723 ft 324 kts 232°
2026-04-27 16:30 29.24225 -95.30730 18217 ft 346 kts 232°
2026-04-27 16:31 29.21092 -95.37702 20143 ft 323 kts 266°
2026-04-27 16:31 29.20619 -95.42787 21409 ft 316 kts 266°
2026-04-27 16:32 29.20207 -95.47720 22682 ft 309 kts 269°
2026-04-27 16:32 29.20014 -95.50140 23317 ft 306 kts 269°
2026-04-27 16:33 29.19634 -95.54905 24421 ft 300 kts 270°
2026-04-27 16:33 29.19445 -95.57261 24933 ft 297 kts 270°
2026-04-27 16:33 29.19207 -95.59606 25400 ft 298 kts 264°
2026-04-27 16:33 29.18530 -95.61845 25833 ft 303 kts 253°
2026-04-27 16:34 29.17535 -95.63992 26306 ft 305 kts 248°
2026-04-27 16:34 29.16411 -95.66062 26782 ft 306 kts 246°
2026-04-27 16:34 29.15244 -95.68066 27251 ft 306 kts 245°
2026-04-27 16:34 29.14036 -95.70080 27597 ft 306 kts 245°
2026-04-27 16:35 29.12837 -95.72048 27869 ft 305 kts 245°
2026-04-27 16:35 29.11611 -95.74052 27899 ft 312 kts 244°
2026-04-27 16:35 29.08991 -95.78323 27953 ft 345 kts 243°
2026-04-27 16:36 29.07575 -95.80622 27988 ft 365 kts 242°
2026-04-27 16:36 29.06058 -95.83066 28031 ft 385 kts 240°
2026-04-27 16:36 29.04458 -95.85593 27991 ft 390 kts 240°
2026-04-27 16:36 29.02870 -95.88126 27946 ft 388 kts 240°
2026-04-27 16:37 29.01331 -95.90597 27930 ft 386 kts 240°
2026-04-27 16:37 28.99750 -95.93144 27917 ft 385 kts 240°
2026-04-27 16:37 28.98197 -95.95646 27910 ft 386 kts 240°
2026-04-27 16:37 28.96644 -95.98164 27921 ft 386 kts 240°
2026-04-27 16:38 28.95090 -96.00671 27914 ft 386 kts 240°
2026-04-27 16:38 28.93541 -96.03173 27920 ft 386 kts 241°
2026-04-27 16:38 28.92045 -96.05688 27922 ft 385 kts 242°
2026-04-27 16:38 28.90608 -96.08253 27924 ft 384 kts 244°
2026-04-27 16:39 28.89226 -96.10844 27923 ft 383 kts 245°
2026-04-27 16:39 28.87882 -96.13477 27924 ft 382 kts 245°
2026-04-27 16:39 28.86586 -96.16129 27924 ft 381 kts 246°
2026-04-27 16:39 28.85331 -96.18774 27927 ft 381 kts 247°
2026-04-27 16:40 28.84043 -96.21430 27911 ft 385 kts 242°
2026-04-27 16:40 28.82224 -96.23718 27940 ft 396 kts 227°
2026-04-27 16:40 28.80080 -96.25676 27919 ft 395 kts 230°
2026-04-27 16:40 28.78259 -96.27998 27951 ft 389 kts 237°
2026-04-27 16:41 28.76617 -96.30432 27939 ft 387 kts 239°
2026-04-27 16:41 28.75070 -96.32842 27905 ft 372 kts 240°
2026-04-27 16:41 28.73589 -96.35187 27607 ft 361 kts 240°
2026-04-27 16:41 28.72154 -96.37485 27123 ft 354 kts 240°
2026-04-27 16:42 28.70744 -96.39743 26654 ft 349 kts 240°
2026-04-27 16:42 28.69348 -96.41977 26184 ft 343 kts 240°
2026-04-27 16:42 28.67970 -96.44184 25685 ft 339 kts 240°
2026-04-27 16:42 28.66617 -96.46349 25185 ft 336 kts 240°
2026-04-27 16:43 28.65272 -96.48498 24679 ft 333 kts 240°
2026-04-27 16:43 28.63941 -96.50629 24171 ft 330 kts 239°
2026-04-27 16:43 28.62629 -96.52728 23673 ft 327 kts 239°
2026-04-27 16:43 28.61324 -96.54810 23180 ft 325 kts 239°
2026-04-27 16:44 28.60023 -96.56883 22686 ft 322 kts 239°
2026-04-27 16:44 28.58713 -96.58972 22180 ft 320 kts 239°
2026-04-27 16:44 28.57428 -96.61020 21683 ft 318 kts 238°
2026-04-27 16:44 28.56155 -96.63049 21193 ft 316 kts 238°
2026-04-27 16:45 28.54870 -96.65066 20695 ft 314 kts 238°
2026-04-27 16:45 28.53599 -96.67104 20217 ft 312 kts 238°
2026-04-27 16:45 28.52348 -96.69102 19747 ft 311 kts 237°
2026-04-27 16:45 28.51086 -96.71113 19271 ft 310 kts 237°
2026-04-27 16:46 28.49822 -96.73107 18790 ft 308 kts 235°
2026-04-27 16:46 28.48543 -96.75097 18289 ft 307 kts 235°
2026-04-27 16:46 28.47310 -96.77058 17812 ft 305 kts 237°
2026-04-27 16:46 28.46086 -96.79028 17349 ft 304 kts 237°
2026-04-27 16:47 28.44865 -96.80978 16889 ft 303 kts 236°
2026-04-27 16:47 28.43636 -96.82932 16429 ft 303 kts 236°
2026-04-27 16:47 28.42417 -96.84866 15977 ft 302 kts 236°
2026-04-27 16:47 28.41203 -96.86790 15529 ft 301 kts 236°
2026-04-27 16:48 28.39985 -96.88718 15078 ft 300 kts 235°
2026-04-27 16:48 28.38778 -96.90630 14630 ft 300 kts 234°
2026-04-27 16:48 28.37561 -96.92544 14158 ft 299 kts 235°
2026-04-27 16:49 28.35149 -96.96371 13263 ft 299 kts 235°
2026-04-27 16:49 28.33937 -96.98286 12813 ft 299 kts 235°
2026-04-27 16:49 28.32736 -97.00183 12366 ft 299 kts 234°
2026-04-27 16:49 28.31525 -97.02095 11916 ft 299 kts 234°
2026-04-27 16:50 28.30307 -97.04015 11467 ft 299 kts 234°
2026-04-27 16:50 28.29104 -97.05911 11023 ft 298 kts 234°
2026-04-27 16:50 28.27899 -97.07809 10577 ft 298 kts 234°
2026-04-27 16:50 28.26698 -97.09696 10081 ft 289 kts 234°
2026-04-27 16:51 28.25559 -97.11486 9538 ft 275 kts 234°
2026-04-27 16:51 28.24470 -97.13200 9004 ft 263 kts 234°
2026-04-27 16:51 28.23421 -97.14852 8483 ft 254 kts 234°
2026-04-27 16:51 28.22418 -97.16434 7974 ft 246 kts 234°
2026-04-27 16:52 28.21430 -97.17987 7469 ft 239 kts 234°
2026-04-27 16:52 28.20474 -97.19492 6997 ft 233 kts 234°
2026-04-27 16:52 28.19519 -97.20993 6673 ft 235 kts 234°
2026-04-27 16:52 28.18557 -97.22500 6329 ft 238 kts 232°
2026-04-27 16:53 28.17575 -97.24020 5971 ft 240 kts 234°
2026-04-27 16:53 28.16604 -97.25566 5625 ft 242 kts 234°
2026-04-27 16:53 28.15617 -97.27119 5284 ft 244 kts 233°
2026-04-27 16:53 28.14622 -97.28683 4937 ft 245 kts 233°
2026-04-27 16:54 28.13654 -97.30203 4562 ft 234 kts 233°
2026-04-27 16:54 28.12727 -97.31653 4188 ft 223 kts 233°
2026-04-27 16:54 28.11841 -97.33044 3795 ft 215 kts 233°
2026-04-27 16:54 28.10972 -97.34403 3493 ft 211 kts 232°
2026-04-27 16:55 28.10110 -97.35754 3245 ft 212 kts 232°
2026-04-27 16:55 28.09249 -97.37101 2997 ft 213 kts 232°
2026-04-27 16:55 28.08377 -97.38466 2746 ft 213 kts 232°
2026-04-27 16:55 28.07516 -97.39812 2536 ft 212 kts 232°
2026-04-27 16:56 28.06656 -97.41159 2331 ft 210 kts 231°
2026-04-27 16:56 28.05804 -97.42491 2126 ft 209 kts 231°
2026-04-27 16:56 28.04948 -97.43829 1921 ft 208 kts 231°
2026-04-27 16:56 28.04113 -97.45132 1796 ft 202 kts 231°
2026-04-27 16:57 28.03308 -97.46390 1794 ft 189 kts 231°
2026-04-27 16:57 28.02553 -97.47569 1775 ft 184 kts 231°
2026-04-27 16:57 28.01800 -97.48739 1798 ft 187 kts 231°
2026-04-27 16:57 28.01030 -97.49942 1798 ft 189 kts 231°
2026-04-27 16:58 28.00260 -97.51145 1801 ft 190 kts 231°
2026-04-27 16:58 27.99490 -97.52349 1798 ft 184 kts 231°
2026-04-27 16:58 27.98771 -97.53469 1785 ft 168 kts 231°
2026-04-27 16:58 27.98117 -97.54507 1770 ft 162 kts 233°
2026-04-27 16:59 27.97490 -97.55601 1800 ft 166 kts 233°
2026-04-27 16:59 27.96858 -97.56701 1803 ft 169 kts 233°
2026-04-27 16:59 27.96210 -97.57819 1807 ft 170 kts 234°
2026-04-27 16:59 27.95560 -97.58944 1800 ft 169 kts 234°
2026-04-27 17:00 27.94482 -97.60797 1805 ft 169 kts 234°
2026-04-27 17:00 27.93617 -97.62287 1806 ft 170 kts 234°
2026-04-27 17:00 27.92779 -97.63187 1790 ft 167 kts 206°
2026-04-27 17:01 27.91727 -97.63759 1808 ft 166 kts 204°
2026-04-27 17:01 27.90662 -97.64248 1798 ft 166 kts 194°
2026-04-27 17:01 27.89522 -97.64378 1795 ft 166 kts 169°
2026-04-27 17:01 27.88515 -97.63769 1812 ft 169 kts 135°
2026-04-27 17:02 27.87817 -97.62687 1819 ft 169 kts 128°
2026-04-27 17:02 27.87171 -97.61650 1774 ft 156 kts 134°
2026-04-27 17:02 27.86427 -97.60855 1764 ft 140 kts 140°
2026-04-27 17:02 27.85716 -97.60095 1800 ft 140 kts 140°
2026-04-27 17:03 27.84998 -97.59326 1812 ft 144 kts 139°
2026-04-27 17:03 27.84268 -97.58528 1779 ft 148 kts 139°
2026-04-27 17:03 27.83530 -97.57719 1586 ft 147 kts 139°
2026-04-27 17:03 27.82808 -97.56926 1400 ft 143 kts 139°
2026-04-27 17:04 27.82097 -97.56150 1211 ft 141 kts 139°
2026-04-27 17:04 27.81397 -97.55385 1030 ft 140 kts 139°
2026-04-27 17:04 27.80697 -97.54619 840 ft 140 kts 139°
2026-04-27 17:04 27.79997 -97.53854 655 ft 140 kts 139°
2026-04-27 17:05 27.79295 -97.53085 467 ft 139 kts 139°
2026-04-27 17:05 27.78606 -97.52330 280 ft 138 kts 139°
2026-04-27 17:05 27.77935 -97.51592 127 ft 132 kts 137°
2026-04-27 17:05 27.77297 -97.50888 46 ft 123 kts 138°
2026-04-27 17:06 27.76818 -97.50376 44 ft 50 kts 136°
2026-04-27 17:06 27.76639 -97.50178 45 ft 13 kts 134°
2026-04-27 17:06 27.76636 -97.50105 44 ft 8 kts 55°
2026-04-27 17:06 27.76665 -97.50066 45 ft 6 kts 46°
2026-04-27 17:07 27.76716 -97.50026 44 ft 10 kts
2026-04-27 17:07 27.76778 -97.50063 44 ft 10 kts 315°
2026-04-27 17:07 27.76850 -97.50144 44 ft 18 kts 317°
2026-04-27 17:07 27.76945 -97.50245 44 ft 17 kts 316°
2026-04-27 17:08 27.77021 -97.50329 44 ft 13 kts 316°
2026-04-27 17:08 27.77080 -97.50393 44 ft 12 kts 317°
2026-04-27 17:08 27.77157 -97.50440 44 ft 14 kts 13°
2026-04-27 17:08 27.77240 -97.50367 45 ft 13 kts 47°
2026-04-27 17:09 27.77264 -97.50240 44 ft 19 kts 92°
2026-04-27 17:09 27.77275 -97.50106 44 ft 14 kts 53°
2026-04-27 17:09 27.77362 -97.50084 44 ft 14 kts 331°
2026-04-27 17:09 27.77385 -97.50166 44 ft 5 kts 285°
2026-04-27 17:10 27.77386 -97.50169 44 ft 0 kts 286°